"Date","subscriberCount","subscriberChange","viewCount","viewChange","videoCount","videoChange","commentCount","commentChange"
"2020-10-15 00:02:04","367000","0","298494288","0","882","0","0","0"
"2020-10-16 00:02:04","368000","1000","299210696","716408","882","0","0","0"
"2020-10-17 00:02:03","368000","0","299634401","423705","882","0","0","0"
"2020-10-18 00:02:04","368000","0","299681789","47388","882","0","0","0"
"2020-10-19 00:02:04","369000","1000","300037821","356032","882","0","0","0"
"2020-10-20 00:02:04","369000","0","300313205","275384","882","0","0","0"
"2020-10-21 00:02:03","369000","0","300684826","371621","883","1","0","0"
"2020-10-22 00:02:03","369000","0","301034971","350145","884","1","0","0"
"2020-10-23 00:02:04","369000","0","301393780","358809","884","0","0","0"
"2020-10-24 00:02:04","369000","0","301754365","360585","885","1","0","0"
"2020-10-25 00:02:04","369000","0","301995718","241353","885","0","0","0"
"2020-10-27 00:02:04","370000","1000","302597879","602161","885","0","0","0"
"2020-10-28 00:02:03","370000","0","302860996","263117","886","1","0","0"
"2020-10-29 00:02:03","370000","0","303178493","317497","887","1","0","0"
"2020-10-30 00:02:02","370000","0","303464458","285965","887","0","","0"
"2020-10-31 00:02:03","370000","0","303814811","350353","888","1","0","0"
"2020-11-01 00:02:03","371000","1000","304185268","370457","888","0","","0"
"2020-11-02 00:02:02","371000","0","304570809","385541","888","0","0","0"
"2020-11-03 00:02:03","371000","0","304868567","297758","888","0","0","0"
"2020-11-04 00:02:03","371000","0","305291896","423329","889","1","0","0"
"2020-11-05 00:02:05","372000","1000","305583869","291973","890","1","0","0"
"2020-11-06 00:02:03","372000","0","305951412","367543","890","0","0","0"
"2020-11-07 00:02:04","372000","0","306299397","347985","891","1","0","0"
"2020-11-08 00:02:04","373000","1000","306691745","392348","891","0","0","0"
"2020-11-09 00:02:06","373000","0","307065270","373525","891","0","0","0"
"2020-11-10 00:02:04","373000","0","307382706","317436","891","0","0","0"
"2020-11-11 00:02:04","373000","0","307752608","369902","892","1","0","0"
"2020-11-12 00:02:03","374000","1000","308181164","428556","893","1","","0"
"2020-11-13 00:02:03","374000","0","308546866","365702","893","0","","0"
"2020-11-14 00:02:02","374000","0","308984523","437657","894","1","","0"
"2020-11-15 00:02:02","375000","1000","309447613","463090","894","0","","0"
"2020-11-16 00:02:03","375000","0","309925049","477436","894","0","","0"
"2020-11-17 00:02:02","376000","1000","310349793","424744","894","0","","0"
"2020-11-18 00:02:02","376000","0","310837975","488182","895","1","","0"
"2020-11-19 00:02:02","377000","1000","311344128","506153","896","1","","0"
"2020-11-20 00:02:03","377000","0","311850460","506332","896","0","","0"
"2020-11-21 00:02:02","378000","1000","312407337","556877","897","1","","0"
"2020-11-22 00:02:02","378000","0","313029673","622336","897","0","","0"
"2020-11-23 00:02:03","379000","1000","313614695","585022","897","0","","0"
"2020-11-24 00:02:02","380000","1000","314192991","578296","897","0","","0"
"2020-11-25 00:02:02","380000","0","314743753","550762","898","1","","0"
"2020-11-26 00:02:02","381000","1000","315289265","545512","899","1","","0"
"2020-11-27 00:02:03","381000","0","315845334","556069","899","0","","0"
"2020-11-28 00:02:02","381000","0","316439034","593700","900","1","","0"
"2020-11-29 00:02:02","382000","1000","317001826","562792","900","0","","0"
"2020-11-30 00:02:03","382000","0","317585349","583523","900","0","","0"
"2020-12-01 00:02:02","383000","1000","318000531","415182","900","0","","0"
"2020-12-02 00:02:03","383000","0","318443135","442604","901","1","","0"
"2020-12-03 00:02:02","383000","0","318855676","412541","902","1","","0"
"2020-12-04 00:02:02","384000","1000","319271309","415633","902","0","","0"
"2020-12-05 00:02:04","384000","0","319656200","384891","903","1","","0"
"2020-12-06 00:02:03","384000","0","320070448","414248","903","0","","0"
"2020-12-07 00:02:02","385000","1000","320470996","400548","903","0","","0"
"2020-12-08 00:02:03","385000","0","320782063","311067","903","0","","0"
"2020-12-09 00:02:03","385000","0","321165029","382966","904","1","","0"
"2020-12-10 00:02:03","385000","0","321556667","391638","905","1","","0"
"2020-12-11 00:02:03","385000","0","321885925","329258","905","0","","0"
"2020-12-12 00:02:03","386000","1000","322221071","335146","906","1","","0"
"2020-12-13 00:02:03","386000","0","322577042","355971","906","0","","0"
"2020-12-14 00:02:04","386000","0","322880142","303100","906","0","","0"
"2020-12-15 00:02:04","386000","0","323152426","272284","906","0","","0"
"2020-12-16 00:02:03","386000","0","323422301","269875","907","1","","0"
"2020-12-17 00:02:04","386000","0","323725380","303079","908","1","","0"
"2020-12-18 00:02:03","386000","0","324012963","287583","908","0","","0"
"2020-12-19 00:02:04","387000","1000","324255542","242579","909","1","","0"
"2020-12-20 00:02:03","387000","0","324521446","265904","909","0","","0"
"2020-12-21 00:02:04","387000","0","324757126","235680","909","0","","0"
"2020-12-22 00:02:03","387000","0","324922187","165061","909","0","","0"
"2020-12-23 00:02:02","387000","0","325158938","236751","909","0","","0"
"2020-12-24 00:02:04","387000","0","325220357","61419","910","1","","0"
"2020-12-25 00:02:03","387000","0","325456900","236543","910","0","","0"
"2020-12-26 00:02:03","387000","0","325710324","253424","911","1","","0"
"2020-12-27 00:02:03","388000","1000","325948600","238276","911","0","","0"
"2020-12-28 00:02:04","388000","0","326172195","223595","911","0","","0"
"2020-12-29 00:02:03","388000","0","326383594","211399","911","0","","0"
"2020-12-30 00:02:03","388000","0","326638962","255368","912","1","","0"
"2020-12-31 00:02:02","388000","0","326914678","275716","913","1","","0"
"2021-01-01 00:02:03","388000","0","327161173","246495","913","0","","0"
"2021-01-02 00:02:04","388000","0","327407277","246104","914","1","","0"
"2021-01-03 00:02:04","388000","0","327672841","265564","914","0","","0"
"2021-01-04 00:02:04","389000","1000","327959269","286428","914","0","","0"
"2021-01-05 00:02:05","389000","0","328229334","270065","914","0","","0"
"2021-01-06 00:02:03","389000","0","328567894","338560","915","1","","0"
"2021-01-07 00:02:02","389000","0","328987054","419160","916","1","","0"
"2021-01-08 00:02:02","390000","1000","329385113","398059","916","0","","0"
"2021-01-09 00:02:02","390000","0","329727427","342314","913","-3","","0"
"2021-01-10 00:02:02","390000","0","326933952","-2793475","913","0","","0"
"2021-01-11 00:02:02","390000","0","327269884","335932","913","0","","0"
"2021-01-12 00:02:03","391000","1000","327620250","350366","913","0","","0"
"2021-01-13 00:02:02","391000","0","327949562","329312","914","1","","0"
"2021-01-14 00:02:02","391000","0","328325133","375571","915","1","","0"
"2021-01-15 00:02:03","391000","0","328684973","359840","915","0","","0"
"2021-01-16 00:02:02","392000","1000","329109937","424964","916","1","","0"
"2021-01-17 00:02:02","392000","0","329468853","358916","916","0","","0"
"2021-01-18 00:02:03","392000","0","329878865","410012","916","0","","0"
"2021-01-19 00:02:02","392000","0","330170142","291277","916","0","","0"
"2021-01-20 00:02:02","392000","0","330464757","294615","917","1","","0"
"2021-01-21 00:02:02","393000","1000","330758969","294212","918","1","","0"
"2021-01-22 00:02:02","393000","0","331036181","277212","918","0","","0"
"2021-01-23 00:02:03","393000","0","331406275","370094","919","1","","0"
"2021-01-24 00:02:02","393000","0","331758590","352315","919","0","","0"
"2021-01-25 00:02:02","393000","0","332085456","326866","919","0","","0"
"2021-01-26 00:02:02","393000","0","332342094","256638","919","0","","0"
"2021-01-27 00:02:03","394000","1000","332687533","345439","919","0","","0"
"2021-01-28 00:02:02","394000","0","333072391","384858","921","2","","0"
"2021-01-29 00:02:03","394000","0","333433078","360687","921","0","","0"
"2021-01-30 00:02:02","394000","0","333864571","431493","922","1","","0"
"2021-01-31 00:02:02","395000","1000","334307171","442600","922","0","","0"
"2021-02-01 00:02:03","395000","0","334670463","363292","922","0","","0"
"2021-02-02 00:02:02","395000","0","334959120","288657","922","0","","0"
"2021-02-03 00:02:03","395000","0","335345126","386006","923","1","","0"
"2021-02-04 00:02:03","396000","1000","335794686","449560","924","1","","0"
"2021-02-05 00:02:02","396000","0","336143897","349211","924","0","","0"
"2021-02-06 00:02:03","396000","0","336458909","315012","925","1","","0"
"2021-02-07 00:02:02","396000","0","336759332","300423","925","0","","0"
"2021-02-08 00:02:03","396000","0","337030094","270762","925","0","","0"
"2021-02-09 00:02:02","396000","0","337230001","199907","925","0","","0"
"2021-02-10 00:02:03","396000","0","337501477","271476","926","1","","0"
"2021-02-11 00:02:02","396000","0","337740170","238693","927","1","","0"
"2021-02-12 00:02:02","396000","0","338052521","312351","927","0","","0"
"2021-02-13 00:02:02","396000","0","338336705","284184","928","1","","0"
"2021-02-14 00:02:03","396000","0","338607418","270713","928","0","","0"
"2021-02-15 00:02:02","396000","0","338816299","208881","928","0","","0"
"2021-02-16 00:02:02","396000","0","339073832","257533","928","0","","0"
"2021-02-17 00:02:02","397000","1000","339397404","323572","929","1","","0"
"2021-02-18 00:02:02","397000","0","339762615","365211","930","1","","0"
"2021-02-19 00:02:02","397000","0","340046242","283627","930","0","","0"
"2021-02-20 00:02:03","397000","0","340362017","315775","931","1","","0"
"2021-02-21 00:02:02","397000","0","340673553","311536","931","0","","0"
"2021-02-22 00:02:03","397000","0","340918539","244986","931","0","","0"
"2021-02-23 00:02:02","397000","0","341171118","252579","931","0","","0"
"2021-02-24 00:02:02","397000","0","341555719","384601","932","1","","0"
"2021-02-25 00:02:02","398000","1000","341903086","347367","933","1","","0"
"2021-02-26 00:02:02","398000","0","342218085","314999","933","0","","0"
"2021-02-27 00:02:02","398000","0","342596117","378032","934","1","","0"
"2021-02-28 00:02:02","398000","0","343004946","408829","934","0","","0"
"2021-03-01 00:02:02","398000","0","343375985","371039","934","0","","0"
"2021-03-02 00:02:03","398000","0","343672740","296755","934","0","","0"
"2021-03-03 00:02:02","399000","1000","344032074","359334","935","1","","0"
"2021-03-04 00:02:02","399000","0","344419406","387332","936","1","","0"
"2021-03-05 00:02:02","399000","0","344503337","83931","936","0","","0"
"2021-03-06 00:02:02","399000","0","344848599","345262","937","1","","0"
"2021-03-07 00:02:03","399000","0","345191836","343237","937","0","","0"
"2021-03-08 00:02:02","399000","0","345558115","366279","937","0","","0"
"2021-03-09 00:02:02","400000","1000","345911547","353432","937","0","","0"
"2021-03-10 00:02:02","400000","0","346239020","327473","938","1","","0"
"2021-03-11 00:02:02","400000","0","346673595","434575","939","1","","0"
"2021-03-12 00:02:02","400000","0","347072669","399074","939","0","","0"
"2021-03-13 00:02:02","401000","1000","347581187","508518","940","1","","0"
"2021-03-14 00:02:02","401000","0","348145269","564082","940","0","","0"
"2021-03-15 00:02:02","402000","1000","348691005","545736","940","0","","0"
"2021-03-16 00:02:01","402000","0","349178426","487421","940","0","","0"
"2021-03-17 00:02:02","402000","0","349588351","409925","941","1","","0"
"2021-03-18 00:02:02","402000","0","350008965","420614","942","1","","0"
"2021-03-19 00:02:02","403000","1000","350476098","467133","942","0","","0"
"2021-03-20 00:02:02","403000","0","350852212","376114","943","1","","0"
"2021-03-21 00:02:02","403000","0","351318882","466670","943","0","","0"
"2021-03-22 00:02:02","404000","1000","351670071","351189","943","0","","0"
"2021-03-23 00:02:03","404000","0","352044076","374005","943","0","","0"
"2021-03-24 00:02:02","404000","0","352332758","288682","943","0","","0"
"2021-03-25 00:02:02","404000","0","352695929","363171","944","1","","0"
"2021-03-26 00:02:02","404000","0","352967151","271222","944","0","","0"
"2021-03-27 00:02:01","404000","0","353226261","259110","945","1","","0"
"2021-03-28 00:02:03","405000","1000","353565736","339475","945","0","","0"
"2021-03-29 00:02:03","405000","0","353848111","282375","945","0","","0"
"2021-03-30 00:02:02","405000","0","354108901","260790","945","0","","0"
"2021-03-31 00:02:02","405000","0","354331592","222691","946","1","","0"
"2021-04-01 00:02:02","405000","0","354662503","330911","947","1","","0"
"2021-04-02 00:02:02","405000","0","355008367","345864","947","0","","0"
"2021-04-03 00:02:02","405000","0","355281172","272805","948","1","","0"
"2021-04-04 00:02:02","406000","1000","355728087","446915","948","0","","0"
"2021-04-05 00:02:02","406000","0","356100533","372446","948","0","","0"
"2021-04-06 00:02:02","406000","0","356332086","231553","948","0","","0"
"2021-04-07 00:02:02","406000","0","356571183","239097","949","1","","0"
"2021-04-08 00:02:03","406000","0","356829178","257995","950","1","","0"
"2021-04-09 00:02:02","406000","0","357062323","233145","950","0","","0"
"2021-04-10 00:02:03","406000","0","357241688","179365","951","1","","0"
"2021-04-11 00:02:03","406000","0","357442109","200421","951","0","","0"
"2021-04-12 00:02:02","406000","0","357631822","189713","951","0","","0"
"2021-04-13 00:02:03","406000","0","357773370","141548","951","0","","0"
"2021-04-14 00:02:03","406000","0","357985152","211782","952","1","","0"
"2021-04-15 00:02:03","406000","0","358203710","218558","953","1","","0"
"2021-04-16 00:02:03","406000","0","358393250","189540","953","0","","0"
"2021-04-17 00:02:03","406000","0","358550877","157627","954","1","","0"
"2021-04-18 00:02:03","406000","0","358742179","191302","954","0","","0"
"2021-04-19 00:02:03","406000","0","358906773","164594","954","0","","0"
"2021-04-20 00:02:03","406000","0","359084802","178029","954","0","","0"
"2021-04-21 00:02:02","406000","0","359223427","138625","955","1","","0"
"2021-04-22 00:02:02","406000","0","359369121","145694","956","1","","0"
"2021-04-23 00:02:03","406000","0","359522898","153777","956","0","","0"
"2021-04-24 00:02:03","406000","0","359664686","141788","957","1","","0"
"2021-04-25 00:02:03","406000","0","359816647","151961","957","0","","0"
"2021-04-26 00:02:04","406000","0","359964017","147370","957","0","","0"
"2021-04-27 00:02:02","406000","0","360075253","111236","957","0","","0"
"2021-04-28 00:02:02","406000","0","360261261","186008","958","1","","0"
"2021-04-29 00:02:03","406000","0","360424010","162749","959","1","","0"
"2021-04-30 00:02:02","406000","0","360587739","163729","959","0","","0"
"2021-05-01 00:02:03","406000","0","360764976","177237","960","1","","0"
"2021-05-02 00:02:02","406000","0","360935681","170705","960","0","","0"
"2021-05-03 00:02:04","406000","0","361093981","158300","960","0","","0"
"2021-05-04 00:02:03","406000","0","361202175","108194","960","0","","0"
"2021-05-05 00:02:03","406000","0","361378022","175847","961","1","","0"
"2021-05-06 00:02:03","406000","0","361573423","195401","962","1","","0"
"2021-05-07 00:02:03","406000","0","361821864","248441","962","0","","0"
"2021-05-08 00:02:03","406000","0","362019892","198028","963","1","","0"
"2021-05-09 00:02:02","406000","0","362276085","256193","963","0","","0"
"2021-05-10 00:02:04","406000","0","362513079","236994","963","0","","0"
"2021-05-11 00:02:03","406000","0","362738067","224988","963","0","","0"
"2021-05-12 00:02:03","406000","0","362902859","164792","964","1","","0"
"2021-05-13 00:02:03","406000","0","363108313","205454","965","1","","0"
"2021-05-14 00:02:03","407000","1000","363342695","234382","965","0","","0"
"2021-05-15 00:02:03","407000","0","363561798","219103","966","1","","0"
"2021-05-16 00:02:04","407000","0","363867163","305365","966","0","","0"
"2021-05-17 00:02:03","407000","0","364160766","293603","966","0","","0"
"2021-05-18 00:02:04","408000","1000","364478384","317618","966","0","","0"
"2021-05-19 00:02:02","408000","0","364864695","386311","967","1","","0"
"2021-05-20 00:02:02","409000","1000","365472349","607654","968","1","","0"
"2021-05-21 00:02:03","410000","1000","366117272","644923","968","0","","0"
"2021-05-22 00:02:03","411000","1000","366774675","657403","969","1","","0"
"2021-05-23 00:02:04","412000","1000","367470265","695590","969","0","","0"
"2021-05-24 00:02:03","413000","1000","368161963","691698","969","0","","0"
"2021-05-25 00:02:03","413000","0","368581856","419893","969","0","","0"
"2021-05-26 00:02:02","414000","1000","369330020","748164","970","1","","0"
"2021-05-27 00:02:03","414000","0","369924895","594875","971","1","","0"
"2021-05-28 00:02:03","415000","1000","370468177","543282","971","0","","0"
"2021-05-29 00:02:03","415000","0","371039572","571395","972","1","","0"
"2021-05-30 00:02:04","416000","1000","371608615","569043","972","0","","0"
"2021-05-31 00:02:02","416000","0","372156246","547631","972","0","","0"
"2021-06-01 00:02:03","416000","0","372575434","419188","972","0","","0"
"2021-06-02 00:02:02","417000","1000","373120362","544928","973","1","","0"
"2021-06-03 00:02:02","417000","0","373632162","511800","974","1","","0"
"2021-06-04 00:02:02","418000","1000","374208243","576081","974","0","","0"
"2021-06-05 00:02:02","418000","0","374766347","558104","975","1","","0"
"2021-06-06 00:02:02","418000","0","375318198","551851","975","0","","0"
"2021-06-07 00:02:02","419000","1000","375847983","529785","975","0","","0"
"2021-06-08 00:02:02","419000","0","376373883","525900","975","0","","0"
"2021-06-09 00:02:01","419000","0","376804629","430746","976","1","","0"
"2021-06-10 00:02:02","420000","1000","377296802","492173","977","1","","0"
"2021-06-11 00:02:03","420000","0","377817328","520526","977","0","","0"
"2021-06-12 00:02:03","420000","0","378339306","521978","978","1","","0"
"2021-06-13 00:02:03","421000","1000","378853200","513894","978","0","","0"
"2021-06-14 00:02:02","421000","0","379436875","583675","978","0","","0"
"2021-06-15 00:02:02","422000","1000","380053362","616487","978","0","","0"
"2021-06-16 00:02:02","422000","0","380565883","512521","979","1","","0"
"2021-06-17 00:02:02","422000","0","381182797","616914","980","1","","0"
"2021-06-18 00:02:02","423000","1000","381783273","600476","980","0","","0"
"2021-06-19 00:02:02","423000","0","382305004","521731","981","1","","0"
"2021-06-20 00:02:02","424000","1000","382878382","573378","981","0","","0"
"2021-06-21 00:02:02","424000","0","383420757","542375","981","0","","0"
"2021-06-22 00:02:02","424000","0","383929287","508530","981","0","","0"
"2021-06-23 00:02:03","424000","0","384319925","390638","982","1","","0"
"2021-06-24 00:02:02","425000","1000","384799850","479925","983","1","","0"
"2021-06-25 00:02:02","425000","0","385325912","526062","983","0","","0"
"2021-06-26 00:02:03","425000","0","385822570","496658","984","1","","0"
"2021-06-27 00:02:03","426000","1000","386361466","538896","984","0","","0"
"2021-06-28 00:02:03","426000","0","386929703","568237","984","0","","0"
"2021-06-29 00:02:03","426000","0","387525368","595665","984","0","","0"
"2021-06-30 00:02:02","427000","1000","387961485","436117","985","1","","0"
"2021-07-01 00:02:03","427000","0","388556446","594961","986","1","","0"
"2021-07-02 00:02:02","427000","0","389097716","541270","986","0","","0"
"2021-07-03 00:02:03","427000","0","389630601","532885","987","1","","0"
"2021-07-04 00:02:03","428000","1000","390105046","474445","987","0","","0"
"2021-07-05 00:02:03","428000","0","390569658","464612","987","0","","0"
"2021-07-06 00:02:03","428000","0","390814514","244856","987","0","","0"
"2021-07-07 00:02:02","428000","0","391447236","632722","988","1","","0"
"2021-07-08 00:02:03","428000","0","391860964","413728","989","1","","0"
"2021-07-09 00:02:03","429000","1000","392261585","400621","989","0","","0"
"2021-07-10 00:02:03","429000","0","392651089","389504","990","1","","0"
"2021-07-11 00:02:02","429000","0","393059648","408559","990","0","","0"
"2021-07-12 00:02:02","429000","0","393470724","411076","990","0","","0"
"2021-07-13 00:02:01","429000","0","393774530","303806","990","0","","0"
"2021-07-14 00:02:02","429000","0","394171253","396723","989","-1","","0"
"2021-07-15 00:02:03","429000","0","394527750","356497","990","1","","0"
"2021-07-16 00:02:03","430000","1000","392935648","-1592102","990","0","","0"
"2021-07-17 00:02:01","430000","0","393230695","295047","991","1","","0"
"2021-07-18 00:02:01","430000","0","393566812","336117","991","0","","0"
"2021-07-19 00:02:03","430000","0","393899507","332695","991","0","","0"
"2021-07-20 00:02:03","430000","0","394245646","346139","991","0","","0"
"2021-07-21 00:02:02","430000","0","394517948","272302","992","1","","0"
"2021-07-22 00:02:02","430000","0","394886499","368551","993","1","","0"
"2021-07-23 00:02:02","431000","1000","395247400","360901","993","0","","0"
"2021-07-24 00:02:01","431000","0","395601377","353977","994","1","","0"
"2021-07-25 00:02:02","431000","0","395929995","328618","994","0","","0"
"2021-07-26 00:02:02","431000","0","396187238","257243","994","0","","0"
"2021-07-27 00:02:02","431000","0","396403538","216300","994","0","","0"
"2021-07-28 00:02:03","431000","0","396573189","169651","995","1","","0"
"2021-07-29 00:02:02","431000","0","396783968","210779","996","1","","0"
"2021-07-30 00:02:02","431000","0","397015872","231904","996","0","","0"
"2021-07-31 00:02:03","431000","0","397212012","196140","997","1","","0"
"2021-08-01 00:02:01","431000","0","397433814","221802","997","0","","0"
"2021-08-02 00:02:02","431000","0","397634908","201094","997","0","","0"
"2021-08-03 00:02:02","431000","0","397826028","191120","997","0","","0"
"2021-08-04 00:02:02","431000","0","398009435","183407","998","1","","0"
"2021-08-05 00:02:01","431000","0","398205385","195950","999","1","","0"
"2021-08-06 00:02:01","432000","1000","398480673","275288","999","0","","0"
"2021-08-07 00:02:02","432000","0","398642327","161654","1000","1","","0"
"2021-08-08 00:02:02","432000","0","398983194","340867","1000","0","","0"
"2021-08-09 00:02:02","432000","0","399238737","255543","1000","0","","0"
"2021-08-10 00:02:02","432000","0","399509447","270710","1000","0","","0"
"2021-08-11 00:02:02","432000","0","399509447","0","1001","1","","0"
"2021-08-12 00:02:02","432000","0","400011780","502333","1002","1","","0"
"2021-08-13 00:02:02","433000","1000","400238687","226907","1002","0","","0"
"2021-08-14 00:02:03","433000","0","400499573","260886","1003","1","","0"
"2021-08-15 00:02:03","433000","0","400841179","341606","1003","0","","0"
"2021-08-16 00:02:03","434000","1000","401146526","305347","1003","0","","0"
"2021-08-17 00:02:03","434000","0","401272822","126296","1003","0","","0"
"2021-08-18 00:02:02","434000","0","401688062","415240","1004","1","","0"
"2021-08-19 00:02:02","434000","0","401996677","308615","1005","1","","0"
"2021-08-20 00:02:01","434000","0","402381284","384607","1005","0","","0"
"2021-08-21 00:02:02","434000","0","402689478","308194","1006","1","","0"
"2021-08-22 00:02:07","435000","1000","403015853","326375","1006","0","","0"
"2021-08-23 00:02:02","435000","0","403359301","343448","1006","0","","0"
"2021-08-24 00:02:03","435000","0","403719831","360530","1006","0","","0"
"2021-08-25 00:02:02","435000","0","404003833","284002","1007","1","","0"
"2021-08-26 00:02:02","435000","0","404280244","276411","1008","1","","0"
"2021-08-27 00:02:01","436000","1000","404709386","429142","1008","0","","0"
"2021-08-28 00:02:02","436000","0","404979253","269867","1009","1","","0"
"2021-08-29 00:02:01","436000","0","405326476","347223","1009","0","","0"
"2021-08-30 00:02:02","436000","0","405648844","322368","1009","0","","0"
"2021-08-31 00:02:02","437000","1000","405810760","161916","1009","0","","0"
"2021-09-01 00:02:02","437000","0","406232847","422087","1010","1","","0"
"2021-09-02 00:02:02","437000","0","406599798","366951","1011","1","","0"
"2021-09-03 00:02:02","437000","0","406980419","380621","1011","0","","0"